Location: Unspecified
(38.9820°N, 94.4650°W)
Time: 09:43:22
(UTC-05:00)

Hubble Space Telescope - Visible Passes

Search period start: 25 March 2019 00:00
Search period end: 04 April 2019 00:00
Orbit: 537 x 540 km, 28.5° (Epoch: 24 March)

Date Brightness Start Highest point End Pass type
(mag) Time Alt. Az. Time Alt. Az. Time Alt. Az.
25 Mar 3.0 21:27:59 10° SW 21:29:10 14° SSW 21:29:10 14° SSW visible
26 Mar 2.7 21:17:17 10° SW 21:19:27 17° S 21:19:27 17° S visible
27 Mar 2.5 21:06:38 10° SW 21:09:33 19° S 21:09:41 19° S visible
28 Mar 2.5 20:56:01 10° SW 20:58:58 19° S 20:59:53 18° SSE visible
29 Mar 2.6 20:45:27 10° SW 20:48:23 19° S 20:50:02 15° SSE visible
30 Mar 2.7 20:34:55 10° SW 20:37:47 18° S 20:40:11 12° SE visible
31 Mar 2.8 20:24:28 10° SW 20:27:12 17° S 20:29:56 10° SE visible
01 Apr 2.9 20:14:03 10° SW 20:16:36 16° S 20:19:10 10° SSE visible
02 Apr 3.1 20:03:43 10° SW 20:05:59 14° SSW 20:08:17 10° SSE visible
